sat.trackr.live / text

‹ back to catalog

STARLINK-32306

NORAD 61520 · 2024-183M

PAYLOAD ACTIVE UNKNOWN

§ Identity

Operator
Country
US
Launch date
2024-10-15
Launch site
AFETR
Launch vehicle
Mass (kg)
RCS (m²)

Purposes: comms

External: N2YO · Heavens-Above · Gunter

§ Orbital elements

Epoch: 2026-05-25T00:46:32.353824Z

Period
94.11 min
Inclination
53.1594°
Eccentricity
0.0001540
Mean motion
15.30196760 rev/d
Perigee alt
474.2 km
Apogee alt
476.3 km
Semi-major
6,853.4 km
B*
4.5284e-5
RAAN
147.6358°
Arg perigee
80.1665°
Mean anomaly
279.9510°
Rev number
9,134

§ Raw data

STARLINK-323061 61520U 24183M   26145.03231891  .00000982  00000+0  45284-4 0  99922 61520  53.1594 147.6358 0001540  80.1665 279.9510 15.30196760 91341

JSON: /api/v1/satellites/61520 · /tle

For live sub-satellite position, see the globe view (requires WebGL).

§ Visibility from observer

Set your observer location to see the next 7 days of passes ≥ 10°. The values pass through the URL so the page stays shareable.

No JS? Fill the form by hand. The geolocation button needs JavaScript.